Location: Pianadetto
(44.4000°N, 10.1000°E)
Time: 02:49:52
(UTC+00:00)

Helios 1A - Pass Details

Date: 26 May 2022
Orbit: 581 x 601 km, 98.2° (Epoch: 23 April)

Event Time Altitude Azimuth Distance (km) Brightness Sun altitude
Exits shadow 01:16:52 14° 142° (SE) 1,684 5.1 -19.0°
Maximum altitude 01:20:16 48° 71° (ENE) 791 3.9 -18.7°
Drops below altitude 10° 01:24:20 10° 358° (N) 1,950 6.4 -18.3°
Sets 01:26:34 0° 353° (N) 2,860 7.3 -18.1°
